Time,TemperatureF,DewpointF,PressureIn,WindDirection,WindDirectionDegrees,WindSpeedMPH,WindSpeedGustMPH,Humidity,HourlyPrecipIn,Conditions,Clouds,dailyrainin,SoftwareType,DateUTC
2013-07-30 05:42:00,62.0,41.0,-100.00,NNE,24,5.0,6.0,46,0.00,,,0.00,,2013-07-30 12:42:00,
2013-07-30 05:53:00,62.0,41.0,-100.00,NNE,24,5.0,6.0,46,0.00,,,0.00,,2013-07-30 12:53:00,
2013-07-30 06:22:00,63.0,41.0,-100.00,ESE,102,6.0,7.0,44,0.00,,,0.00,,2013-07-30 13:22:00,
2013-07-30 06:52:00,62.0,42.0,-100.00,WNW,292,5.0,6.0,49,0.00,,,0.00,,2013-07-30 13:52:00,
2013-07-30 07:02:00,62.0,42.0,-100.00,WNW,292,5.0,6.0,49,0.00,,,0.00,,2013-07-30 14:02:00,
2013-07-30 07:22:00,62.0,42.0,-100.00,SE,128,2.0,4.0,48,0.00,,,0.00,,2013-07-30 14:22:00,
2013-07-30 07:32:00,62.0,42.0,-100.00,SE,128,2.0,4.0,48,0.00,,,0.00,,2013-07-30 14:32:00,
2013-07-30 07:53:00,63.0,43.0,-100.00,SW,234,2.0,3.0,49,0.00,,,0.00,,2013-07-30 14:53:00,
2013-07-30 08:22:00,63.0,43.0,-100.00,NE,49,1.0,2.0,48,0.00,,,0.00,,2013-07-30 15:22:00,
2013-07-30 08:30:00,65.0,43.0,-100.00,SSW,203,1.0,2.0,44,0.00,,,0.00,,2013-07-30 15:30:00,
2013-07-30 08:43:00,63.0,43.0,-100.00,NE,49,1.0,2.0,48,0.00,,,0.00,,2013-07-30 15:43:00,
2013-07-30 09:22:00,65.0,43.0,-100.00,SSW,203,1.0,2.0,44,0.00,,,0.00,,2013-07-30 16:22:00,
2013-07-30 09:43:00,67.0,43.0,-100.00,East,95,0.0,1.0,42,0.00,,,0.00,,2013-07-30 16:43:00,
2013-07-30 10:32:00,73.0,43.0,-100.00,WNW,296,2.0,4.0,34,0.00,,,0.00,,2013-07-30 17:32:00,
2013-07-30 10:43:00,74.0,45.0,-100.00,NE,51,4.0,6.0,35,0.00,,,0.00,,2013-07-30 17:43:00,
2013-07-30 10:53:00,74.0,45.0,-100.00,NE,51,4.0,6.0,35,0.00,,,0.00,,2013-07-30 17:53:00,
2013-07-30 11:02:00,74.0,45.0,-100.00,NE,51,4.0,6.0,35,0.00,,,0.00,,2013-07-30 18:02:00,
2013-07-30 11:22:00,75.0,43.0,-100.00,NNW,344,6.0,9.0,32,0.00,,,0.00,,2013-07-30 18:22:00,
2013-07-30 11:32:00,75.0,43.0,-100.00,NNW,344,6.0,9.0,32,0.00,,,0.00,,2013-07-30 18:32:00,
2013-07-30 11:42:00,75.0,43.0,-100.00,NNW,344,6.0,9.0,32,0.00,,,0.00,,2013-07-30 18:42:00,
2013-07-30 12:02:00,76.0,41.0,-100.00,NW,322,5.0,7.0,28,0.00,,,0.00,,2013-07-30 19:02:00,
2013-07-30 12:12:00,76.0,41.0,-100.00,NW,322,5.0,7.0,28,0.00,,,0.00,,2013-07-30 19:12:00,
2013-07-30 12:22:00,76.0,41.0,-100.00,NW,322,5.0,7.0,28,0.00,,,0.00,,2013-07-30 19:22:00,
2013-07-30 12:33:00,78.0,40.0,-100.00,WNW,291,6.0,9.0,26,0.00,,,0.00,,2013-07-30 19:33:00,
2013-07-30 12:44:00,78.0,40.0,-100.00,WNW,291,6.0,9.0,26,0.00,,,0.00,,2013-07-30 19:44:00,
2013-07-30 12:52:00,78.0,40.0,-100.00,WNW,291,6.0,9.0,26,0.00,,,0.00,,2013-07-30 19:52:00,
2013-07-30 13:12:00,80.0,39.0,-100.00,WNW,291,3.0,5.0,23,0.00,,,0.00,,2013-07-30 20:12:00,
2013-07-30 13:22:00,80.0,39.0,-100.00,WNW,291,3.0,5.0,23,0.00,,,0.00,,2013-07-30 20:22:00,
2013-07-30 13:32:00,80.0,39.0,-100.00,NNW,337,9.0,11.0,23,0.00,,,0.00,,2013-07-30 20:32:00,
2013-07-30 13:43:00,80.0,40.0,-100.00,NNW,328,7.0,11.0,23,0.00,,,0.00,,2013-07-30 20:43:00,
2013-07-30 13:52:00,80.0,40.0,-100.00,NNW,328,7.0,11.0,23,0.00,,,0.00,,2013-07-30 20:52:00,
2013-07-30 14:02:00,82.0,40.0,-100.00,NNE,14,6.0,12.0,22,0.00,,,0.00,,2013-07-30 21:02:00,
2013-07-30 14:12:00,82.0,40.0,-100.00,NNE,14,6.0,12.0,22,0.00,,,0.00,,2013-07-30 21:12:00,
2013-07-30 14:22:00,82.0,40.0,-100.00,NNE,14,6.0,12.0,22,0.00,,,0.00,,2013-07-30 21:22:00,
2013-07-30 14:32:00,83.0,40.0,-100.00,NNW,328,7.0,12.0,21,0.00,,,0.00,,2013-07-30 21:32:00,
2013-07-30 14:42:00,83.0,40.0,-100.00,NNW,328,7.0,12.0,21,0.00,,,0.00,,2013-07-30 21:42:00,
2013-07-30 14:53:00,83.0,40.0,-100.00,NNW,328,7.0,12.0,21,0.00,,,0.00,,2013-07-30 21:53:00,
2013-07-30 15:12:00,85.0,38.0,-100.00,North,360,9.0,13.0,19,0.00,,,0.00,,2013-07-30 22:12:00,
2013-07-30 15:22:00,85.0,38.0,-100.00,North,360,9.0,13.0,19,0.00,,,0.00,,2013-07-30 22:22:00,
2013-07-30 15:43:00,84.0,38.0,-100.00,NW,316,7.0,12.0,19,0.00,,,0.00,,2013-07-30 22:43:00,
2013-07-30 15:52:00,84.0,38.0,-100.00,NW,316,7.0,12.0,19,0.00,,,0.00,,2013-07-30 22:52:00,
2013-07-30 16:02:00,84.0,38.0,-100.00,NW,316,7.0,12.0,19,0.00,,,0.00,,2013-07-30 23:02:00,
2013-07-30 16:12:00,85.0,36.0,-100.00,NW,318,7.0,11.0,18,0.00,,,0.00,,2013-07-30 23:12:00,
2013-07-30 16:22:00,85.0,36.0,-100.00,NW,318,7.0,11.0,18,0.00,,,0.00,,2013-07-30 23:22:00,
2013-07-30 16:32:00,85.0,36.0,-100.00,NW,318,7.0,11.0,18,0.00,,,0.00,,2013-07-30 23:32:00,
2013-07-30 16:53:00,85.0,35.0,-100.00,North,353,5.0,7.0,17,0.00,,,0.00,,2013-07-30 23:53:00,
2013-07-30 17:02:00,85.0,35.0,-100.00,North,353,5.0,7.0,17,0.00,,,0.00,,2013-07-31 00:02:00,
2013-07-30 17:12:00,85.0,35.0,-100.00,North,353,5.0,7.0,17,0.00,,,0.00,,2013-07-31 00:12:00,
2013-07-30 17:22:00,85.0,36.0,-100.00,NNW,329,6.0,10.0,18,0.00,,,0.00,,2013-07-31 00:22:00,
2013-07-30 17:32:00,85.0,36.0,-100.00,NNW,329,6.0,10.0,18,0.00,,,0.00,,2013-07-31 00:32:00,
2013-07-30 17:43:00,85.0,36.0,-100.00,NNW,329,8.0,10.0,18,0.00,,,0.00,,2013-07-31 00:43:00,
2013-07-30 17:53:00,85.0,36.0,-100.00,NNW,329,8.0,10.0,18,0.00,,,0.00,,2013-07-31 00:53:00,
2013-07-30 18:02:00,85.0,36.0,-100.00,NNW,329,8.0,10.0,18,0.00,,,0.00,,2013-07-31 01:02:00,
2013-07-30 18:12:00,85.0,36.0,-100.00,NNW,329,8.0,10.0,18,0.00,,,0.00,,2013-07-31 01:12:00,
2013-07-30 18:32:00,84.0,36.0,-100.00,NNW,336,6.0,10.0,18,0.00,,,0.00,,2013-07-31 01:32:00,
2013-07-30 18:42:00,84.0,36.0,-100.00,NNE,30,5.0,7.0,18,0.00,,,0.00,,2013-07-31 01:42:00,
2013-07-30 18:52:00,84.0,36.0,-100.00,NNE,30,5.0,7.0,18,0.00,,,0.00,,2013-07-31 01:52:00,
2013-07-30 19:02:00,84.0,35.0,-100.00,NNW,328,4.0,6.0,17,0.00,,,0.00,,2013-07-31 02:02:00,
2013-07-30 19:12:00,84.0,35.0,-100.00,NNW,328,4.0,6.0,17,0.00,,,0.00,,2013-07-31 02:12:00,
2013-07-30 19:22:00,84.0,35.0,-100.00,NNW,328,4.0,6.0,17,0.00,,,0.00,,2013-07-31 02:22:00,
2013-07-30 19:30:00,81.0,35.0,-100.00,NW,315,4.0,6.0,19,0.00,,,0.00,,2013-07-31 02:30:00,
2013-07-30 19:32:00,83.0,35.0,-100.00,WNW,301,4.0,5.0,18,0.00,,,0.00,,2013-07-31 02:32:00,
2013-07-30 19:43:00,83.0,35.0,-100.00,WNW,301,4.0,5.0,18,0.00,,,0.00,,2013-07-31 02:43:00,
2013-07-30 19:52:00,83.0,35.0,-100.00,WNW,301,4.0,5.0,18,0.00,,,0.00,,2013-07-31 02:52:00,
2013-07-30 20:02:00,81.0,35.0,-100.00,NW,315,4.0,6.0,19,0.00,,,0.00,,2013-07-31 03:02:00,
2013-07-30 20:12:00,81.0,35.0,-100.00,NW,315,4.0,6.0,19,0.00,,,0.00,,2013-07-31 03:12:00,
2013-07-30 20:22:00,81.0,35.0,-100.00,NW,315,4.0,6.0,19,0.00,,,0.00,,2013-07-31 03:22:00,
2013-07-30 20:42:00,80.0,35.0,-100.00,WNW,296,4.0,4.0,20,0.00,,,0.00,,2013-07-31 03:42:00,
2013-07-30 21:02:00,77.0,36.0,-100.00,NNW,346,7.0,9.0,23,0.00,,,0.00,,2013-07-31 04:02:00,
2013-07-30 21:12:00,77.0,36.0,-100.00,NNW,346,7.0,9.0,23,0.00,,,0.00,,2013-07-31 04:12:00,
2013-07-30 21:32:00,73.0,36.0,-100.00,North,349,5.0,6.0,26,0.00,,,0.00,,2013-07-31 04:32:00,